Airfield :
LOGIN :

Register | Disclaimer

   EN    FR    IT 

 










Legend :    VFR   Marginal VFR   IFR   Intensive IFR   Very Intensive IFR
Visi :
Ceiling :
>= 8 km
>= 3000ft
5 to 8 km
1000 to 3000 ft
1500m to 5 km
500 to 1000 ft
800 to 1500m
200 to 500 ft
< 800m
< 200 ft
Symbols :   Thunderstorms  Fog  Heavy snow  Heavy precipitations  Wind > 20 kt
SIGMETs :     Misc.  Thunderstorms  Icing  Turbulence  Mountain Waves  Volcanic Ashes







- Airport Elevation : 392 ft
- IATA code : CDG
- Download approach charts


LFPG - Paris-Aeroport Charles De Gaulle

CURRENT METAR :
  • 130530Z 08007KT 7000 NSC M00/M01 Q1015 NOSIG

EXPIRED METARs :
  • 130500Z 07005KT 6000 NSC M01/M02 Q1015 NOSIG
  • 130430Z 06009KT 6000 NSC M01/M02 Q1016 NOSIG
  • 130400Z 07007KT 6000 FEW009 M01/M02 Q1016 NOSIG
  • 130330Z 07006KT 6000 FEW009 M02/M03 Q1016 NOSIG
  • 130300Z 10005KT 6000 FEW009 M00/M01 Q1017 NOSIG

TAF TAF LFPG
Valid from the 13 at 06:00 until the 14 at 12:00 UTC


130500Z 1306/1412 08010KT 6000 NSC TX02/1312Z TNM04/1406Z
TEMPO 1306/1308 4000 BR
PROB30
TEMPO 1306/1308 BKN008
ATIS : +33 1 48 62 10 92
No reported NOTAMs for that airfield.



MET'MAP, your aeronautical weather chart ! - Copyright ORBIFLY December 2007 - Disclaimer

ORBIFLY MET'MAP TEAM :

Programming & Development : Alexandra Zaïnal
Concept & Development : Baudouin d'Aumeries
Co-Development & Prog : Marc-Olivier Méhu
Technical & hardware support : Manuel Goepfert

Contact : metmap@orbifly.com




SOURCES & CREDITS :

   NOAA